[[{"header":{"parameterUnit":"m.s-1","parameterCategory":1,"la1":30.2992,"la2":30.254,"lo1":-89.0895,"lo2":-89.0443,"dy":0.0025,"dx":0.0025,"nx":19,"ny":19,"refTime":"2026-05-09T03:00:00:Z","depth":0,"parameterNumber":2,"parameterNumberName":"U-component_of_WINDS"},"data":[0,0,0,-2.6252,-2.6252,-2.6251,-2.625,-2.6279,-2.628,0,0,0,0,0,0,0,0,0,0,0,-2.627,-2.6271,-2.6252,-2.6252,-2.6251,-2.625,-2.6279,-2.628,0,0,0,0,0,0,0,0,0,0,0,-2.627,-2.6271,-2.6272,-2.6253,-2.6251,-2.625,-2.6279,-2.627,0,0,0,0,0,0,0,0,0,0,-2.6266,-2.6299,-2.627,-2.6272,-2.6253,-2.6251,-2.625,-2.6269,-2.627,-2.6293,0,-2.6317,0,-2.6299,-2.6284,-2.6284,0,0,0,-2.624,-2.6298,-2.6282,-2.6272,-2.6253,-2.6251,-2.6248,-2.6269,-2.6271,-2.6295,-2.6317,-2.6317,-2.6299,-2.6284,-2.6284,-2.6456,-2.6457,0,0,-2.624,-2.6279,-2.6281,-2.6284,-2.6285,-2.6248,-2.6248,-2.627,-2.6296,-2.6317,-2.6317,-2.63,-2.6284,-2.6285,-2.6455,-2.6456,0,0,0,-2.6249,-2.628,-2.6262,-2.6284,-2.6281,-2.6248,-2.6248,-2.6295,-2.6286,-2.6317,-2.63,-2.6285,-2.6285,-2.6453,-2.6455,-2.6563,0,0,0,-2.6248,-2.6285,-2.6263,-2.6287,-2.6281,-2.6288,-2.6274,-2.6285,-2.6286,-2.63,-2.6285,-2.6286,-2.6451,-2.6454,-2.6557,-2.6609,0,0,0,-2.6264,-2.6287,-2.6292,-2.6289,-2.629,-2.6286,-2.6278,-2.6284,-2.6276,-2.6284,-2.6286,-2.645,-2.6454,-2.6551,-2.6599,-2.6667,0,0,0,-2.6293,-2.6388,-2.6295,-2.6394,-2.629,-2.6353,-2.6278,-2.6322,-2.6342,-2.6285,-2.6452,-2.6455,-2.6549,-2.6593,-2.6661,-2.6732,-2.6764,0,0,-2.6435,-2.6406,-2.6462,-2.6378,-2.6468,-2.635,-2.6455,-2.6436,-2.6401,-2.644,-2.6444,-2.6559,-2.6598,-2.6665,-2.6931,-2.6958,0,0,0,-2.652,-2.6561,-2.6576,-2.6596,-2.6583,-2.6577,-2.6537,-2.653,-2.6561,-2.6428,-2.66,-2.6622,-2.666,-2.6692,-2.6714,-2.6745,-2.6471,-2.6471,-2.647,-2.6779,-2.6728,-2.6817,-2.6768,-2.6788,-2.6747,-2.6759,-2.6743,-2.6686,-2.6728,-2.674,-2.6907,-2.6946,-2.6962,-2.6995,-2.6771,-2.6772,-2.6772,-2.6772,-2.6983,-2.7034,-2.6956,-2.7015,-2.6962,-2.7012,-2.6976,-2.6934,-2.6974,-2.6893,-2.6924,-2.6842,-2.6993,-2.7019,-2.678,-2.6779,-2.6778,-2.6777,-2.6776,-2.7149,-2.7164,-2.7154,-2.7178,-2.7204,-2.7149,-2.7191,-2.7141,-2.7094,-2.7125,-2.7133,-2.7131,-2.7125,-2.7132,-2.7132,-2.7133,-2.7133,-2.7134,-2.7134,-2.7325,-2.7309,-2.735,-2.7345,-2.7352,-2.7356,-2.7315,-2.7322,-2.7316,-2.7276,-2.7276,-2.7217,-2.7016,-2.6968,-2.7143,-2.7142,-2.714,-2.714,-2.7139,-2.7554,-2.7494,-2.7558,-2.7565,-2.7556,-2.7586,-2.7521,-2.7538,-2.7536,-2.7559,-2.7492,-2.7351,-2.7319,-2.7301,-2.7261,-2.7501,-2.7501,-2.7501,-2.7501,-2.7695,-2.7673,-2.7728,-2.7743,-2.7752,-2.77,-2.7776,-2.7746,-2.7707,-2.7703,-2.766,-2.7602,-2.7586,-2.7563,-2.7539,-2.7501,-2.7797,-2.7798,-2.7798,-2.7835,-2.7812,-2.7885,-2.7844,-2.7834,-2.7827,-2.7897,-2.7919,-2.7862,-2.7809,-2.7699,-2.7687,-2.7592,-2.7564,-2.751,-2.7474,-2.7403,0,0]},{"header":{"parameterUnit":"m.s-1","parameterCategory":1,"la1":30.2992,"la2":30.254,"lo1":-89.0895,"lo2":-89.0443,"dy":0.0025,"dx":0.0025,"nx":19,"ny":19,"refTime":"2026-05-09T03:00:00:Z","depth":0,"parameterNumber":3,"parameterNumberName":"V-component_of_WINDS"},"data":[0,0,0,0.5944,0.5944,0.5938,0.5939,0.5912,0.5912,0,0,0,0,0,0,0,0,0,0,0,0.5933,0.5933,0.5944,0.5944,0.5938,0.5939,0.5912,0.5912,0,0,0,0,0,0,0,0,0,0,0,0.5934,0.5933,0.5932,0.5944,0.5938,0.5939,0.5912,0.5923,0,0,0,0,0,0,0,0,0,0,0.5932,0.591,0.5933,0.5932,0.5944,0.5938,0.5939,0.5924,0.5923,0.5906,0,0.5888,0,0.5899,0.5909,0.5909,0,0,0,0.5953,0.5911,0.5921,0.5932,0.5943,0.5938,0.5943,0.5924,0.5922,0.5904,0.5888,0.5887,0.5899,0.5908,0.5908,0.5782,0.5781,0,0,0.5953,0.5926,0.5922,0.5919,0.5918,0.5943,0.5943,0.5923,0.5903,0.5888,0.5887,0.5898,0.5908,0.5908,0.5783,0.5782,0,0,0,0.5948,0.5925,0.5936,0.592,0.592,0.5943,0.5943,0.5904,0.591,0.5887,0.5898,0.5908,0.5907,0.5785,0.5783,0.5705,0,0,0,0.5948,0.5923,0.5936,0.5919,0.592,0.5912,0.5924,0.5911,0.591,0.5898,0.5908,0.5907,0.5786,0.5784,0.571,0.5673,0,0,0,0.5938,0.5922,0.5917,0.5918,0.5914,0.5913,0.5918,0.5912,0.5916,0.5909,0.5907,0.5786,0.5784,0.5714,0.5679,0.5631,0,0,0,0.5919,0.5847,0.5915,0.584,0.5914,0.5865,0.5918,0.5883,0.5868,0.5908,0.5786,0.5783,0.5715,0.5684,0.5635,0.5584,0.556,0,0,0.5813,0.5834,0.5792,0.5852,0.5784,0.5869,0.579,0.5801,0.5826,0.5796,0.5793,0.5708,0.568,0.5632,0.5441,0.5422,0,0,0,0.5749,0.5718,0.5707,0.569,0.5698,0.5701,0.5728,0.5733,0.5709,0.5804,0.568,0.5663,0.5636,0.5613,0.5597,0.5575,0.5772,0.5772,0.5772,0.5559,0.5595,0.5528,0.5564,0.5548,0.5577,0.5567,0.5578,0.5619,0.5589,0.5579,0.5459,0.5431,0.5419,0.5396,0.5557,0.5557,0.5556,0.5556,0.5406,0.5368,0.5426,0.5381,0.542,0.5384,0.541,0.544,0.5411,0.5469,0.5447,0.5505,0.5397,0.5379,0.5551,0.5552,0.5552,0.5553,0.5553,0.5284,0.5272,0.528,0.5261,0.5243,0.5283,0.5253,0.529,0.5325,0.5303,0.5296,0.5298,0.5303,0.5298,0.5297,0.5297,0.5297,0.5296,0.5296,0.5153,0.5165,0.5135,0.5139,0.5134,0.5132,0.5163,0.5159,0.5164,0.5194,0.5194,0.5236,0.5381,0.5415,0.529,0.5291,0.5292,0.5292,0.5293,0.4982,0.5027,0.4981,0.4976,0.4984,0.4964,0.5013,0.5002,0.5005,0.4989,0.5038,0.5139,0.5162,0.5175,0.5204,0.5031,0.5031,0.5031,0.5031,0.4877,0.4893,0.4855,0.4845,0.484,0.488,0.4827,0.4851,0.4882,0.4886,0.4917,0.4959,0.4971,0.4987,0.5004,0.5031,0.4818,0.4818,0.4818,0.4773,0.4791,0.4738,0.477,0.478,0.4787,0.4739,0.4725,0.4771,0.481,0.489,0.4899,0.4967,0.4987,0.5025,0.5051,0.5102,0,0]}]]